| time (UTC) | temp C | wind direction | speed KPH | gust KPH | rain 1hr cm | rain 24hr cm | rain mn cm | humidity % | barometer mb |
| 20260510105250 | 21 | 144 | 0.0 | 0.0 | 0.00 | 0.00 | 0.00 | 92 | 1008.5 |
| 20260510104731 | 22 | 144 | 0.0 | 0.0 | 0.00 | 0.00 | 0.00 | 93 | 1008.5 |
| 20260510104228 | 22 | 144 | 0.0 | 0.0 | 0.00 | 0.00 | 0.00 | 93 | 1008.4 |
| 20260510104203 | 22 | 144 | 0.0 | 0.0 | 0.00 | 0.00 | 0.00 | 93 | 1008.4 |
| 20260510103200 | 22 | 144 | 0.0 | 0.0 | 0.00 | 0.00 | 0.00 | 92 | 1008.4 |
| 20260510102704 | 22 | 144 | 0.0 | 0.0 | 0.00 | 0.00 | 0.00 | 93 | 1008.5 |
| 20260510102700 | 22 | 144 | 0.0 | 0.0 | 0.00 | 0.00 | 0.00 | 92 | 1008.5 |
| 20260510101701 | 22 | 144 | 0.0 | 0.0 | 0.00 | 0.00 | 0.00 | 93 | 1008.6 |
| 20260510101148 | 22 | 144 | 0.0 | 0.0 | 0.00 | 0.00 | 0.00 | 93 | 1008.5 |
| 20260510101137 | 22 | 144 | 0.0 | 4.8 | 0.00 | 0.00 | 0.00 | 93 | 1008.5 |
| 20260510100130 | 22 | 144 | 1.6 | 6.4 | 0.00 | 0.00 | 0.00 | 93 | 1008.4 |
| 20260510100118 | 22 | 144 | 3.2 | 6.4 | 0.00 | 0.00 | 0.00 | 93 | 1008.4 |
| 20260510095117 | 22 | 144 | 3.2 | 6.4 | 0.00 | 0.00 | 0.00 | 93 | 1008.3 |
| 20260510094618 | 22 | 144 | 1.6 | 6.4 | 0.00 | 0.00 | 0.00 | 93 | 1008.3 |
| 20260510094115 | 22 | 143 | 0.0 | 6.4 | 0.00 | 0.00 | 0.00 | 93 | 1008.4 |
| 20260510093623 | 22 | 143 | 0.0 | 3.2 | 0.00 | 0.00 | 0.00 | 92 | 1008.4 |
| 20260510093618 | 22 | 142 | 0.0 | 3.2 | 0.00 | 0.00 | 0.00 | 92 | 1008.4 |
| 20260510092618 | 22 | 143 | 0.0 | 1.6 | 0.00 | 0.00 | 0.00 | 92 | 1008.4 |
| 20260510092112 | 22 | 142 | 0.0 | 1.6 | 0.00 | 0.00 | 0.00 | 92 | 1008.5 |
| 20260510091613 | 22 | 142 | 0.0 | 3.2 | 0.00 | 0.00 | 0.00 | 92 | 1008.5 |
| 20260510091112 | 22 | 143 | 0.0 | 4.8 | 0.00 | 0.00 | 0.00 | 92 | 1008.6 |
| 20260510091106 | 22 | 143 | 0.0 | 3.2 | 0.00 | 0.00 | 0.00 | 92 | 1008.6 |
| 20260510090054 | 22 | 143 | 0.0 | 4.8 | 0.00 | 0.00 | 0.00 | 92 | 1008.5 |
| 20260510085551 | 22 | 143 | 0.0 | 4.8 | 0.00 | 0.00 | 0.00 | 92 | 1008.5 |
| 20260510085052 | 22 | 143 | 0.0 | 3.2 | 0.00 | 0.00 | 0.00 | 92 | 1008.5 |
| 20260510084552 | 22 | 143 | 1.6 | 6.4 | 0.00 | 0.00 | 0.00 | 92 | 1008.5 |
| 20260510084546 | 22 | 143 | 1.6 | 6.4 | 0.00 | 0.00 | 0.00 | 92 | 1008.5 |
| 20260510083525 | 22 | 142 | 1.6 | 3.2 | 0.00 | 0.00 | 0.00 | 92 | 1008.5 |
| 20260510083025 | 22 | 142 | 1.6 | 4.8 | 0.00 | 0.00 | 0.00 | 92 | 1008.4 |
| 20260510082514 | 22 | 142 | 1.6 | 4.8 | 0.00 | 0.00 | 0.00 | 92 | 1008.4 |
| 20260510082014 | 22 | 142 | 1.6 | 3.2 | 0.00 | 0.00 | 0.00 | 92 | 1008.4 |
| 20260510081504 | 22 | 142 | 1.6 | 3.2 | 0.00 | 0.00 | 0.00 | 92 | 1008.3 |
| 20260510080954 | 22 | 142 | 1.6 | 3.2 | 0.00 | 0.00 | 0.00 | 92 | 1008.5 |
| 20260510080453 | 22 | 142 | 1.6 | 3.2 | 0.00 | 0.00 | 0.00 | 91 | 1008.4 |
| 20260510075951 | 22 | 142 | 1.6 | 3.2 | 0.00 | 0.00 | 0.00 | 91 | 1008.4 |
| 20260510075947 | 22 | 142 | 1.6 | 3.2 | 0.00 | 0.00 | 0.00 | 91 | 1008.4 |
| 20260510074947 | 22 | 142 | 1.6 | 3.2 | 0.00 | 0.00 | 0.00 | 91 | 1008.4 |
| 20260510074439 | 22 | 142 | 0.0 | 1.6 | 0.00 | 0.00 | 0.00 | 90 | 1008.4 |
| 20260510073940 | 22 | 142 | 0.0 | 1.6 | 0.00 | 0.00 | 0.00 | 90 | 1008.5 |
| 20260510073917 | 22 | 142 | 0.0 | 3.2 | 0.00 | 0.00 | 0.00 | 90 | 1008.7 |
| 20260510073411 | 22 | 141 | 0.0 | 3.2 | 0.00 | 0.00 | 0.00 | 90 | 1008.7 |
| 20260510072408 | 22 | 142 | 1.6 | 4.8 | 0.00 | 0.00 | 0.00 | 90 | 1008.6 |
| 20260510071908 | 22 | 141 | 1.6 | 4.8 | 0.00 | 0.00 | 0.00 | 89 | 1008.8 |
| 20260510071406 | 22 | 141 | 1.6 | 4.8 | 0.00 | 0.00 | 0.00 | 89 | 1008.8 |
| 20260510070908 | 23 | 141 | 3.2 | 6.4 | 0.00 | 0.00 | 0.00 | 89 | 1008.9 |
| 20260510070405 | 23 | 141 | 3.2 | 8.0 | 0.00 | 0.00 | 0.00 | 89 | 1008.8 |
| 20260510065903 | 23 | 141 | 3.2 | 8.0 | 0.00 | 0.00 | 0.00 | 89 | 1008.9 |
| 20260510065403 | 23 | 142 | 3.2 | 6.4 | 0.00 | 0.00 | 0.00 | 89 | 1008.7 |
| 20260510064904 | 23 | 142 | 1.6 | 6.4 | 0.00 | 0.00 | 0.00 | 89 | 1008.8 |
| 20260510064357 | 23 | 144 | 1.6 | 6.4 | 0.00 | 0.00 | 0.00 | 89 | 1008.8 |
| 20260510063842 | 23 | 144 | 1.6 | 6.4 | 0.00 | 0.00 | 0.00 | 90 | 1008.9 |
| 20260510063343 | 23 | 144 | 1.6 | 6.4 | 0.00 | 0.00 | 0.00 | 90 | 1008.8 |
| 20260510062844 | 23 | 145 | 1.6 | 6.4 | 0.00 | 0.00 | 0.00 | 90 | 1008.9 |
| 20260510062342 | 22 | 145 | 1.6 | 6.4 | 0.00 | 0.00 | 0.00 | 89 | 1008.8 |
| 20260510061840 | 23 | 145 | 3.2 | 6.4 | 0.00 | 0.00 | 0.00 | 89 | 1008.9 |
| 20260510061340 | 23 | 145 | 3.2 | 6.4 | 0.00 | 0.00 | 0.00 | 89 | 1008.9 |
| 20260510060839 | 23 | 146 | 3.2 | 6.4 | 0.00 | 0.00 | 0.00 | 88 | 1008.9 |
| 20260510060340 | 23 | 146 | 3.2 | 8.0 | 0.00 | 0.00 | 0.00 | 88 | 1008.9 |
| 20260510055834 | 23 | 146 | 3.2 | 8.0 | 0.00 | 0.00 | 0.00 | 88 | 1008.9 |
| 20260510055829 | 23 | 149 | 1.6 | 6.4 | 0.00 | 0.00 | 0.00 | 88 | 1008.9 |
| 20260510054828 | 23 | 149 | 1.6 | 6.4 | 0.00 | 0.00 | 0.00 | 87 | 1008.8 |
| 20260510054327 | 23 | 150 | 1.6 | 6.4 | 0.00 | 0.00 | 0.00 | 87 | 1008.8 |
| 20260510053825 | 23 | 150 | 1.6 | 6.4 | 0.00 | 0.00 | 0.00 | 87 | 1008.9 |
| 20260510053324 | 23 | 153 | 1.6 | 3.2 | 0.00 | 0.00 | 0.00 | 87 | 1008.8 |
| 20260510052811 | 23 | 153 | 1.6 | 4.8 | 0.00 | 0.00 | 0.00 | 86 | 1008.8 |
| 20260510052306 | 23 | 153 | 0.0 | 4.8 | 0.00 | 0.00 | 0.00 | 86 | 1008.8 |
| 20260510051803 | 24 | 153 | 1.6 | 6.4 | 0.00 | 0.00 | 0.00 | 86 | 1008.7 |
| 20260510051756 | 24 | 153 | 1.6 | 6.4 | 0.00 | 0.00 | 0.00 | 86 | 1008.6 |
| 20260510050754 | 24 | 153 | 1.6 | 6.4 | 0.00 | 0.00 | 0.00 | 85 | 1008.5 |
| 20260510050256 | 24 | 153 | 1.6 | 6.4 | 0.00 | 0.00 | 0.00 | 85 | 1008.5 |
| 20260510045748 | 24 | 153 | 1.6 | 4.8 | 0.00 | 0.00 | 0.00 | 85 | 1008.4 |
| 20260510045239 | 24 | 153 | 3.2 | 9.7 | 0.00 | 0.00 | 0.00 | 84 | 1008.3 |
| 20260510044745 | 24 | 159 | 3.2 | 8.0 | 0.00 | 0.00 | 0.00 | 84 | 1008.2 |
| 20260510044739 | 24 | 153 | 3.2 | 9.7 | 0.00 | 0.00 | 0.00 | 84 | 1007.9 |
| 20260510044352 | 24 | 157 | 1.6 | 6.4 | 0.00 | 0.00 | 0.00 | 85 | 1008.2 |
| 20260510043234 | 24 | 157 | 0.0 | 3.2 | 0.00 | 0.00 | 0.00 | 84 | 1008.4 |
| 20260510043229 | 24 | 157 | 0.0 | 3.2 | 0.00 | 0.00 | 0.00 | 85 | 1008.1 |
| 20260510042210 | 24 | 157 | 0.0 | 3.2 | 0.00 | 0.00 | 0.00 | 84 | 1008.4 |
| 20260510041708 | 24 | 157 | 1.6 | 3.2 | 0.00 | 0.00 | 0.00 | 84 | 1008.3 |
| 20260510041200 | 24 | 157 | 1.6 | 4.8 | 0.00 | 0.00 | 0.00 | 83 | 1008.3 |
| 20260510041156 | 24 | 157 | 1.6 | 4.8 | 0.00 | 0.00 | 0.00 | 83 | 1008.3 |
| 20260510040146 | 25 | 157 | 0.0 | 4.8 | 0.00 | 0.00 | 0.00 | 83 | 1008.0 |
| 20260510040140 | 25 | 157 | 0.0 | 4.8 | 0.00 | 0.00 | 0.00 | 82 | 1008.1 |
| 20260510035129 | 25 | 157 | 0.0 | 3.2 | 0.00 | 0.00 | 0.00 | 82 | 1008.2 |
| 20260510034622 | 25 | 157 | 0.0 | 3.2 | 0.00 | 0.00 | 0.00 | 82 | 1008.0 |
| 20260510034122 | 25 | 157 | 0.0 | 1.6 | 0.00 | 0.00 | 0.00 | 81 | 1008.1 |
| 20260510033617 | 25 | 157 | 0.0 | 1.6 | 0.00 | 0.00 | 0.00 | 81 | 1007.9 |
| 20260510033123 | 25 | 157 | 0.0 | 4.8 | 0.00 | 0.00 | 0.00 | 81 | 1008.0 |
| 20260510033108 | 25 | 157 | 0.0 | 4.8 | 0.00 | 0.00 | 0.00 | 81 | 1007.9 |
| 20260510032105 | 25 | 157 | 1.6 | 4.8 | 0.00 | 0.00 | 0.00 | 81 | 1007.8 |
| 20260510031604 | 25 | 157 | 0.0 | 4.8 | 0.00 | 0.00 | 0.00 | 80 | 1007.8 |
| 20260510031104 | 25 | 157 | 0.0 | 4.8 | 0.00 | 0.00 | 0.00 | 79 | 1007.7 |
| 20260510030601 | 25 | 157 | 0.0 | 4.8 | 0.00 | 0.00 | 0.00 | 79 | 1007.6 |
| 20260510030106 | 26 | 157 | 1.6 | 4.8 | 0.00 | 0.00 | 0.00 | 78 | 1007.5 |
| 20260510025059 | 26 | 157 | 3.2 | 6.4 | 0.00 | 0.00 | 0.00 | 78 | 1007.4 |
| 20260510024558 | 26 | 157 | 1.6 | 6.4 | 0.00 | 0.00 | 0.00 | 77 | 1007.4 |
| 20260510024101 | 26 | 160 | 1.6 | 4.8 | 0.00 | 0.00 | 0.00 | 76 | 1006.8 |
| 20260510024057 | 26 | 160 | 1.6 | 4.8 | 0.00 | 0.00 | 0.00 | 76 | 1007.1 |
| 20260510023058 | 26 | 160 | 1.6 | 4.8 | 0.00 | 0.00 | 0.00 | 76 | 1006.7 |
| 20260510022601 | 26 | 160 | 1.6 | 4.8 | 0.00 | 0.00 | 0.00 | 76 | 1006.5 |
| 20260510022556 | 27 | 160 | 1.6 | 9.7 | 0.00 | 0.00 | 0.00 | 76 | 1006.4 |
| 20260510021538 | 27 | 160 | 3.2 | 9.7 | 0.00 | 0.00 | 0.00 | 75 | 1006.4 |
| 20260510021037 | 27 | 155 | 1.6 | 6.4 | 0.00 | 0.00 | 0.00 | 75 | 1006.2 |
| 20260510020536 | 27 | 159 | 1.6 | 6.4 | 0.00 | 0.00 | 0.00 | 75 | 1006.2 |
| 20260510020034 | 27 | 159 | 3.2 | 9.7 | 0.00 | 0.00 | 0.00 | 75 | 1006.3 |
| 20260510015531 | 27 | 153 | 3.2 | 11.3 | 0.00 | 0.00 | 0.00 | 75 | 1006.0 |
| 20260510015030 | 27 | 127 | 4.8 | 16.1 | 0.00 | 0.00 | 0.00 | 74 | 1006.1 |
| 20260510014526 | 27 | 185 | 4.8 | 16.1 | 0.00 | 0.00 | 0.00 | 74 | 1006.0 |
| 20260510014025 | 27 | 186 | 4.8 | 16.1 | 0.00 | 0.00 | 0.00 | 73 | 1005.8 |
| 20260510013521 | 27 | 142 | 4.8 | 14.5 | 0.00 | 0.00 | 0.00 | 74 | 1006.0 |
| 20260510013021 | 27 | 193 | 4.8 | 12.9 | 0.00 | 0.00 | 0.00 | 74 | 1005.9 |
| 20260510012521 | 28 | 202 | 4.8 | 12.9 | 0.00 | 0.00 | 0.00 | 75 | 1005.8 |
| 20260510012022 | 28 | 184 | 3.2 | 11.3 | 0.00 | 0.00 | 0.00 | 74 | 1006.2 |
| 20260510011523 | 28 | 200 | 3.2 | 16.1 | 0.00 | 0.00 | 0.00 | 74 | 1006.2 |
| 20260510011023 | 28 | 128 | 4.8 | 16.1 | 0.00 | 0.00 | 0.00 | 73 | 1006.2 |
| 20260510011018 | 28 | 178 | 4.8 | 16.1 | 0.00 | 0.00 | 0.00 | 74 | 1006.1 |
| 20260510010014 | 28 | 175 | 4.8 | 16.1 | 0.00 | 0.00 | 0.00 | 73 | 1006.2 |
| 20260510005509 | 28 | 159 | 4.8 | 16.1 | 0.00 | 0.00 | 0.00 | 73 | 1006.2 |
| 20260510005011 | 29 | 158 | 4.8 | 9.7 | 0.00 | 0.00 | 0.00 | 72 | 1006.3 |
| 20260510004503 | 29 | 150 | 4.8 | 12.9 | 0.00 | 0.00 | 0.00 | 72 | 1006.3 |
| 20260510004000 | 29 | 143 | 4.8 | 14.5 | 0.00 | 0.00 | 0.00 | 72 | 1006.3 |
| 20260510003459 | 30 | 169 | 4.8 | 14.5 | 0.00 | 0.00 | 0.00 | 72 | 1006.1 |
| 20260510003001 | 30 | 153 | 4.8 | 14.5 | 0.00 | 0.00 | 0.00 | 71 | 1006.0 |
| 20260510002459 | 30 | 214 | 6.4 | 17.7 | 0.00 | 0.00 | 0.00 | 71 | 1006.0 |
| 20260510002000 | 30 | 148 | 6.4 | 17.7 | 0.00 | 0.00 | 0.00 | 69 | 1005.8 |
| 20260510001457 | 31 | 162 | 4.8 | 16.1 | 0.00 | 0.00 | 0.00 | 67 | 1005.8 |
| 20260510000957 | 32 | 119 | 3.2 | 11.3 | 0.00 | 0.00 | 0.00 | 64 | 1005.7 |
| 20260510000441 | 32 | 136 | 3.2 | 8.0 | 0.00 | 0.00 | 0.00 | 64 | 1005.4 |
| 20260509235942 | 32 | 138 | 3.2 | 8.0 | 0.00 | 0.00 | 0.00 | 64 | 1005.4 |
| 20260509235444 | 32 | 123 | 3.2 | 8.0 | 0.00 | 0.00 | 0.00 | 62 | 1005.3 |
| 20260509235438 | 32 | 130 | 3.2 | 8.0 | 0.00 | 0.00 | 0.00 | 64 | 1005.3 |
| 20260509234938 | 32 | 124 | 3.2 | 8.0 | 0.00 | 0.00 | 0.00 | 63 | 1005.3 |
| 20260509234432 | 32 | 123 | 3.2 | 8.0 | 0.00 | 0.00 | 0.00 | 62 | 1005.3 |
| 20260509233429 | 32 | 123 | 3.2 | 14.5 | 0.00 | 0.00 | 0.00 | 62 | 1005.3 |
| 20260509232923 | 32 | 125 | 3.2 | 14.5 | 0.00 | 0.00 | 0.00 | 62 | 1005.2 |
| 20260509232424 | 32 | 133 | 3.2 | 11.3 | 0.00 | 0.00 | 0.00 | 61 | 1005.3 |
| 20260509232420 | 32 | 132 | 3.2 | 11.3 | 0.00 | 0.00 | 0.00 | 62 | 1005.2 |
| 20260509231420 | 32 | 133 | 3.2 | 9.7 | 0.00 | 0.00 | 0.00 | 62 | 1005.2 |
| 20260509230921 | 32 | 131 | 3.2 | 9.7 | 0.00 | 0.00 | 0.00 | 61 | 1005.3 |
| 20260509230421 | 32 | 149 | 3.2 | 8.0 | 0.00 | 0.00 | 0.00 | 61 | 1005.3 |
| 20260509230406 | 32 | 141 | 3.2 | 8.0 | 0.00 | 0.00 | 0.00 | 60 | 1005.3 |
| 20260509230024 | 32 | 56 | 1.6 | 8.0 | 0.00 | 0.00 | 0.00 | 59 | 1005.3 |
| 20260509224903 | 32 | 32 | 0.0 | 3.2 | 0.00 | 0.00 | 0.00 | 59 | 1005.3 |
| 20260509224858 | 32 | 33 | 0.0 | 4.8 | 0.00 | 0.00 | 0.00 | 59 | 1005.2 |
| 20260509223854 | 32 | 32 | 0.0 | 3.2 | 0.00 | 0.00 | 0.00 | 59 | 1005.3 |
| 20260509223350 | 33 | 32 | 0.0 | 3.2 | 0.00 | 0.00 | 0.00 | 59 | 1005.4 |
| 20260509222856 | 33 | 32 | 1.6 | 4.8 | 0.00 | 0.00 | 0.00 | 59 | 1005.3 |
| 20260509222850 | 33 | 32 | 0.0 | 3.2 | 0.00 | 0.00 | 0.00 | 58 | 1005.5 |
| 20260509221848 | 33 | 32 | 1.6 | 4.8 | 0.00 | 0.00 | 0.00 | 58 | 1005.3 |
| 20260509221833 | 33 | 32 | 1.6 | 6.4 | 0.00 | 0.00 | 0.00 | 57 | 1005.4 |
| 20260509220830 | 33 | 32 | 1.6 | 8.0 | 0.00 | 0.00 | 0.00 | 58 | 1005.3 |
| 20260509220330 | 33 | 34 | 1.6 | 8.0 | 0.00 | 0.00 | 0.00 | 57 | 1005.3 |
| 20260509215828 | 33 | 30 | 3.2 | 8.0 | 0.00 | 0.00 | 0.00 | 58 | 1005.4 |
| 20260509215321 | 33 | 22 | 3.2 | 8.0 | 0.00 | 0.00 | 0.00 | 57 | 1005.3 |
| 20260509214802 | 33 | 19 | 1.6 | 6.4 | 0.00 | 0.00 | 0.00 | 59 | 1005.4 |
| 20260509214302 | 32 | 19 | 3.2 | 16.1 | 0.00 | 0.00 | 0.00 | 59 | 1005.4 |
| 20260509213803 | 33 | 18 | 3.2 | 16.1 | 0.00 | 0.00 | 0.00 | 58 | 1005.3 |
| 20260509213300 | 33 | 243 | 1.6 | 8.0 | 0.00 | 0.00 | 0.00 | 58 | 1005.4 |
| 20260509212756 | 33 | 243 | 1.6 | 9.7 | 0.00 | 0.00 | 0.00 | 56 | 1005.3 |
| 20260509212253 | 34 | 224 | 1.6 | 9.7 | 0.00 | 0.00 | 0.00 | 55 | 1005.3 |
| 20260509211748 | 34 | 249 | 1.6 | 8.0 | 0.00 | 0.00 | 0.00 | 57 | 1005.5 |
| 20260509211239 | 34 | 250 | 1.6 | 8.0 | 0.00 | 0.00 | 0.00 | 55 | 1005.3 |
| 20260509210740 | 34 | 291 | 1.6 | 8.0 | 0.00 | 0.00 | 0.00 | 56 | 1005.4 |
| 20260509210236 | 34 | 292 | 1.6 | 8.0 | 0.00 | 0.00 | 0.00 | 58 | 1005.4 |
| 20260509205730 | 34 | 311 | 1.6 | 8.0 | 0.00 | 0.00 | 0.00 | 55 | 1005.5 |
| 20260509205707 | 33 | 355 | 1.6 | 8.0 | 0.00 | 0.00 | 0.00 | 58 | 1005.6 |
| 20260509204705 | 33 | 94 | 0.0 | 3.2 | 0.00 | 0.00 | 0.00 | 59 | 1005.8 |
| 20260509204204 | 33 | 94 | 0.0 | 6.4 | 0.00 | 0.00 | 0.00 | 60 | 1005.7 |
| 20260509204155 | 32 | 94 | 1.6 | 6.4 | 0.00 | 0.00 | 0.00 | 60 | 1005.8 |
| 20260509203151 | 32 | 95 | 0.0 | 3.2 | 0.00 | 0.00 | 0.00 | 63 | 1005.9 |
| 20260509203145 | 33 | 95 | 0.0 | 6.4 | 0.00 | 0.00 | 0.00 | 58 | 1005.9 |
| 20260509202140 | 32 | 95 | 0.0 | 4.8 | 0.00 | 0.00 | 0.00 | 60 | 1006.0 |
| 20260509202133 | 33 | 95 | 0.0 | 4.8 | 0.00 | 0.00 | 0.00 | 60 | 1006.0 |
| 20260509201603 | 33 | 95 | 1.6 | 4.8 | 0.00 | 0.00 | 0.00 | 60 | 1006.2 |
| 20260509201209 | 33 | 95 | 0.0 | 4.8 | 0.00 | 0.00 | 0.00 | 60 | 1006.0 |
| 20260509200103 | 33 | 96 | 0.0 | 4.8 | 0.00 | 0.00 | 0.00 | 62 | 1006.1 |
| 20260509195556 | 32 | 96 | 1.6 | 8.0 | 0.00 | 0.00 | 0.00 | 64 | 1006.1 |
| 20260509195050 | 32 | 96 | 1.6 | 8.0 | 0.00 | 0.00 | 0.00 | 61 | 1006.3 |
| 20260509194630 | 32 | 184 | 1.6 | 8.0 | 0.00 | 0.00 | 0.00 | 65 | 1006.5 |
| 20260509194538 | 33 | 184 | 1.6 | 3.2 | 0.00 | 0.00 | 0.00 | 59 | 1006.4 |
| 20260509194515 | 33 | 184 | 1.6 | 4.8 | 0.00 | 0.00 | 0.00 | 63 | 1006.4 |
| 20260509193505 | 32 | 182 | 1.6 | 8.0 | 0.00 | 0.00 | 0.00 | 62 | 1006.5 |
| 20260509193120 | 32 | 187 | 0.0 | 4.8 | 0.00 | 0.00 | 0.00 | 62 | 1006.5 |
| 20260509192003 | 32 | 187 | 0.0 | 3.2 | 0.00 | 0.00 | 0.00 | 60 | 1006.5 |
| 20260509191450 | 32 | 187 | 1.6 | 8.0 | 0.00 | 0.00 | 0.00 | 62 | 1006.6 |
| 20260509190947 | 32 | 187 | 1.6 | 12.9 | 0.00 | 0.00 | 0.00 | 62 | 1006.7 |
| 20260509190444 | 32 | 186 | 3.2 | 12.9 | 0.00 | 0.00 | 0.00 | 61 | 1006.8 |
| 20260509185942 | 32 | 141 | 3.2 | 11.3 | 0.00 | 0.00 | 0.00 | 64 | 1006.8 |
| 20260509185421 | 32 | 129 | 1.6 | 6.4 | 0.00 | 0.00 | 0.00 | 64 | 1007.0 |
| 20260509184918 | 32 | 129 | 1.6 | 6.4 | 0.00 | 0.00 | 0.00 | 62 | 1006.8 |
| 20260509184414 | 32 | 128 | 1.6 | 6.4 | 0.00 | 0.00 | 0.00 | 62 | 1006.9 |
| 20260509183907 | 32 | 104 | 1.6 | 6.4 | 0.00 | 0.00 | 0.00 | 63 | 1007.0 |
| 20260509183405 | 32 | 103 | 1.6 | 8.0 | 0.00 | 0.00 | 0.00 | 63 | 1007.1 |
| 20260509182859 | 31 | 102 | 3.2 | 8.0 | 0.00 | 0.00 | 0.00 | 64 | 1007.1 |
| 20260509182359 | 31 | 104 | 3.2 | 8.0 | 0.00 | 0.00 | 0.00 | 64 | 1007.2 |
| 20260509181857 | 31 | 102 | 1.6 | 8.0 | 0.00 | 0.00 | 0.00 | 64 | 1007.3 |
| 20260509181354 | 31 | 104 | 1.6 | 6.4 | 0.00 | 0.00 | 0.00 | 64 | 1007.4 |
| 20260509180856 | 31 | 105 | 1.6 | 6.4 | 0.00 | 0.00 | 0.00 | 65 | 1007.6 |
| 20260509180356 | 31 | 105 | 1.6 | 4.8 | 0.00 | 0.00 | 0.00 | 67 | 1007.5 |
| 20260509175856 | 31 | 106 | 1.6 | 4.8 | 0.00 | 0.00 | 0.00 | 66 | 1007.7 |
| 20260509175351 | 31 | 105 | 1.6 | 8.0 | 0.00 | 0.00 | 0.00 | 67 | 1007.8 |
| 20260509174850 | 30 | 105 | 1.6 | 8.0 | 0.00 | 0.00 | 0.00 | 64 | 1007.8 |
| 20260509174348 | 30 | 249 | 0.0 | 6.4 | 0.00 | 0.00 | 0.00 | 65 | 1008.0 |
| 20260509173842 | 30 | 249 | 0.0 | 6.4 | 0.00 | 0.00 | 0.00 | 66 | 1008.1 |
| 20260509173343 | 30 | 248 | 1.6 | 6.4 | 0.00 | 0.00 | 0.00 | 67 | 1008.1 |
| 20260509173339 | 30 | 248 | 1.6 | 4.8 | 0.00 | 0.00 | 0.00 | 68 | 1008.0 |
| 20260509172336 | 30 | 254 | 1.6 | 3.2 | 0.00 | 0.00 | 0.00 | 68 | 1008.0 |
| 20260509172330 | 30 | 254 | 1.6 | 6.4 | 0.00 | 0.00 | 0.00 | 67 | 1008.2 |
| 20260509171326 | 30 | 254 | 1.6 | 4.8 | 0.00 | 0.00 | 0.00 | 71 | 1008.2 |
| 20260509170831 | 30 | 254 | 0.0 | 4.8 | 0.00 | 0.00 | 0.00 | 72 | 1008.0 |
| 20260509170826 | 30 | 254 | 1.6 | 4.8 | 0.00 | 0.00 | 0.00 | 73 | 1008.2 |
| 20260509165824 | 29 | 254 | 1.6 | 6.4 | 0.00 | 0.00 | 0.00 | 71 | 1008.0 |
| 20260509165308 | 29 | 254 | 1.6 | 8.0 | 0.00 | 0.00 | 0.00 | 72 | 1008.1 |
| 20260509164811 | 29 | 253 | 1.6 | 8.0 | 0.00 | 0.00 | 0.00 | 71 | 1008.0 |
| 20260509164806 | 29 | 230 | 0.0 | 4.8 | 0.00 | 0.00 | 0.00 | 74 | 1008.2 |
| 20260509163805 | 29 | 229 | 1.6 | 3.2 | 0.00 | 0.00 | 0.00 | 74 | 1008.1 |
| 20260509163305 | 28 | 229 | 1.6 | 3.2 | 0.00 | 0.00 | 0.00 | 74 | 1007.9 |
| 20260509162801 | 28 | 229 | 1.6 | 3.2 | 0.00 | 0.00 | 0.00 | 75 | 1007.8 |
| 20260509162306 | 28 | 229 | 1.6 | 6.4 | 0.00 | 0.00 | 0.00 | 74 | 1007.5 |
| 20260509161802 | 28 | 229 | 1.6 | 8.0 | 0.00 | 0.00 | 0.00 | 74 | 1007.2 |
| 20260509161254 | 28 | 231 | 1.6 | 8.0 | 0.00 | 0.00 | 0.00 | 75 | 1007.3 |
| 20260509160744 | 28 | 235 | 1.6 | 6.4 | 0.00 | 0.00 | 0.00 | 77 | 1007.4 |
| 20260509160220 | 28 | 235 | 1.6 | 6.4 | 0.00 | 0.00 | 0.00 | 77 | 1007.5 |
| 20260509160215 | 28 | 204 | 1.6 | 6.4 | 0.00 | 0.00 | 0.00 | 78 | 1007.4 |
| 20260509155215 | 28 | 203 | 1.6 | 8.0 | 0.00 | 0.00 | 0.00 | 81 | 1007.3 |
| 20260509154710 | 27 | 202 | 1.6 | 6.4 | 0.00 | 0.00 | 0.00 | 82 | 1007.4 |
| 20260509154211 | 27 | 198 | 1.6 | 6.4 | 0.00 | 0.00 | 0.00 | 83 | 1007.7 |
| 20260509153705 | 27 | 196 | 1.6 | 6.4 | 0.00 | 0.00 | 0.00 | 84 | 1007.6 |
| 20260509153659 | 26 | 192 | 1.6 | 6.4 | 0.00 | 0.00 | 0.00 | 86 | 1007.6 |
| 20260509153311 | 26 | 192 | 4.8 | 17.7 | 0.00 | 0.00 | 0.00 | 88 | 1007.7 |
| 20260509153154 | 26 | 191 | 3.2 | 9.7 | 0.00 | 0.00 | 0.00 | 86 | 1007.7 |
| 20260509152153 | 26 | 193 | 3.2 | 9.7 | 0.00 | 0.00 | 0.00 | 88 | 1007.7 |
| 20260509151141 | 26 | 192 | 6.4 | 17.7 | 0.00 | 0.00 | 0.00 | 88 | 1007.4 |
| 20260509150640 | 25 | 194 | 4.8 | 14.5 | 0.00 | 0.00 | 0.00 | 88 | 1007.3 |
| 20260509150143 | 25 | 202 | 6.4 | 9.7 | 0.00 | 0.00 | 0.00 | 90 | 1007.7 |
| 20260509150139 | 25 | 205 | 4.8 | 9.7 | 0.00 | 0.00 | 0.00 | 89 | 1007.4 |
| 20260509145139 | 25 | 198 | 6.4 | 11.3 | 0.00 | 0.00 | 0.00 | 91 | 1007.3 |
| 20260509144640 | 25 | 200 | 4.8 | 11.3 | 0.00 | 0.00 | 0.00 | 91 | 1007.3 |
| 20260509144140 | 25 | 205 | 1.6 | 9.7 | 0.00 | 0.00 | 0.00 | 91 | 1007.9 |
| 20260509143642 | 25 | 301 | 0.0 | 1.6 | 0.00 | 0.00 | 0.00 | 92 | 1008.2 |
| 20260509143637 | 25 | 301 | 0.0 | 4.8 | 0.00 | 0.00 | 0.00 | 92 | 1008.1 |
| 20260509142635 | 25 | 301 | 0.0 | 3.2 | 0.00 | 0.00 | 0.00 | 92 | 1008.2 |
| 20260509142124 | 25 | 301 | 0.0 | 3.2 | 0.00 | 0.00 | 0.00 | 92 | 1008.1 |
| 20260509141622 | 25 | 301 | 0.0 | 0.0 | 0.00 | 0.00 | 0.00 | 92 | 1008.2 |
| 20260509141116 | 25 | 301 | 0.0 | 0.0 | 0.00 | 0.00 | 0.00 | 92 | 1008.1 |
| 20260509140611 | 25 | 301 | 0.0 | 4.8 | 0.00 | 0.00 | 0.00 | 92 | 1008.2 |
| 20260509140106 | 25 | 301 | 0.0 | 4.8 | 0.00 | 0.00 | 0.00 | 92 | 1008.0 |
| 20260509135722 | 25 | 301 | 0.0 | 1.6 | 0.00 | 0.00 | 0.00 | 93 | 1008.3 |
| 20260509135715 | 25 | 301 | 0.0 | 1.6 | 0.00 | 0.00 | 0.00 | 93 | 1008.1 |
| 20260509134057 | 24 | 301 | 1.6 | 4.8 | 0.00 | 0.00 | 0.00 | 93 | 1008.3 |
| 20260509133556 | 24 | 301 | 1.6 | 4.8 | 0.00 | 0.00 | 0.00 | 93 | 1008.1 |
| 20260509133055 | 24 | 301 | 0.0 | 1.6 | 0.00 | 0.00 | 0.00 | 93 | 1008.1 |
| 20260509132552 | 24 | 301 | 0.0 | 1.6 | 0.00 | 0.00 | 0.00 | 92 | 1007.8 |
| 20260509132051 | 24 | 301 | 1.6 | 3.2 | 0.00 | 0.00 | 0.00 | 92 | 1007.7 |
| 20260509131548 | 24 | 301 | 0.0 | 3.2 | 0.00 | 0.00 | 0.00 | 92 | 1007.8 |
| 20260509131036 | 24 | 301 | 0.0 | 3.2 | 0.00 | 0.00 | 0.00 | 92 | 1007.6 |
| 20260509130533 | 24 | 301 | 1.6 | 4.8 | 0.00 | 0.00 | 0.00 | 92 | 1007.8 |
| 20260509130114 | 24 | 301 | 1.6 | 8.0 | 0.00 | 0.00 | 0.00 | 92 | 1007.7 |
| 20260509130027 | 24 | 301 | 1.6 | 4.8 | 0.00 | 0.00 | 0.00 | 92 | 1007.9 |
| 20260509130009 | 24 | 304 | 4.8 | 20.9 | 0.00 | 0.00 | 0.00 | 92 | 1007.8 |
| 20260509125128 | 24 | 299 | 3.2 | 9.7 | 0.00 | 0.00 | 0.00 | 92 | 1007.8 |
| 20260509125112 | 24 | 301 | 3.2 | 9.7 | 0.00 | 0.00 | 0.00 | 92 | 1007.8 |
| 20260509123503 | 24 | 306 | 6.4 | 20.9 | 0.00 | 0.00 | 0.00 | 93 | 1007.7 |
| 20260509123002 | 24 | 298 | 6.4 | 22.5 | 0.00 | 0.00 | 0.00 | 93 | 1007.6 |
| 20260509122503 | 24 | 311 | 8.0 | 22.5 | 0.00 | 0.00 | 0.00 | 93 | 1007.9 |
| 20260509122006 | 24 | 193 | 9.7 | 29.0 | 0.00 | 0.00 | 0.00 | 94 | 1005.5 |
| 20260509122002 | 24 | 185 | 9.7 | 29.0 | 0.00 | 0.00 | 0.00 | 93 | 1006.5 |
| 20260509121000 | 23 | 184 | 9.7 | 25.7 | 0.00 | 0.00 | 0.00 | 94 | 1004.8 |
| 20260509120504 | 23 | 146 | 9.7 | 27.4 | 0.00 | 0.00 | 0.00 | 95 | 1004.8 |
| 20260509120458 | 23 | 146 | 9.7 | 27.4 | 0.00 | 0.00 | 0.00 | 95 | 1004.5 |
| 20260509120119 | 24 | 143 | 9.7 | 27.4 | 0.00 | 0.00 | 0.00 | 95 | 1005.1 |
| 20260509114959 | 24 | 181 | 9.7 | 27.4 | 0.00 | 0.00 | 0.00 | 95 | 1005.1 |
| 20260509114500 | 24 | 106 | 9.7 | 25.7 | 0.00 | 0.00 | 0.00 | 95 | 1005.2 |
| 20260509114000 | 23 | 125 | 8.0 | 25.7 | 0.00 | 0.00 | 0.00 | 96 | 1006.0 |
| 20260509113507 | 24 | 209 | 4.8 | 12.9 | 0.00 | 0.00 | 0.00 | 96 | 1008.2 |
| 20260509113502 | 24 | 136 | 3.2 | 11.3 | 0.00 | 0.00 | 0.00 | 96 | 1007.0 |
| 20260509112446 | 24 | 210 | 4.8 | 12.9 | 0.00 | 0.00 | 0.00 | 96 | 1008.5 |
| 20260509111943 | 24 | 187 | 4.8 | 11.3 | 0.00 | 0.00 | 0.00 | 96 | 1008.3 |
| 20260509111449 | 24 | 156 | 4.8 | 11.3 | 0.00 | 0.00 | 0.00 | 96 | 1008.3 |
| 20260509111444 | 24 | 159 | 4.8 | 11.3 | 0.00 | 0.00 | 0.00 | 96 | 1008.3 |
| 20260509110437 | 24 | 123 | 3.2 | 8.0 | 0.00 | 0.00 | 0.00 | 96 | 1008.0 |
| 20260509105939 | 24 | 131 | 1.6 | 8.0 | 0.00 | 0.00 | 0.00 | 96 | 1007.9 |